Change the Weather History Date:

Wednesday, December 21, 2011

  Actual Average Record
Temperature  
Mean Temperature 57 °F 40 °F  
Max Temperature 65 °F 48 °F 75 °F (2013)
Min Temperature 49 °F 31 °F 0 °F (1901)
Degree Days  
Heating Degree Days 8 25  
Month to date heating degree days 406 490  
Since 1 July heating degree days 1056 1171  
Cooling Degree Days 0 0  
Month to date cooling degree days 0 0  
Year to date cooling degree days 1869 1526  
Growing Degree Days 7 (Base 50)    
Moisture  
Dew Point 54 °F    
Average Humidity 85    
Maximum Humidity 93    
Minimum Humidity 77    
Precipitation  
Precipitation 0.25 in 0.14 in 1.90 in (1884)
Month to date precipitation 3.15 3.14  
Year to date precipitation 54.88 46.50  
Snow  
Snow 0.00 in 0.00 in - ()
Month to date snowfall 0.1 0.4  
Since 1 July snowfall 0.1 0.4  
Snow Depth 0.00 in    
Sea Level Pressure  
Sea Level Pressure 29.91 in    
Wind  
Wind Speed 8 mph (SW)    
Max Wind Speed 24 mph    
Max Gust Speed 29 mph    
Visibility 8 miles    
Events Rain , Thunderstorm    
T = Trace of Precipitation, MM = Missing Value Source: NWS Daily Summary

Daily Weather History Graph

Daily Weather History Graph

Search for Another Location

Airport or City:

Trip Planner

Search our weather history database for the weather conditions in past years. The results will help you decide how hot, cold, wet, or windy it might be!

Date:

Astronomy

Dec. 21, 2011 Rise Set
Actual Time 7:42 AM EST 5:25 PM EST
Civil Twilight 7:13 AM EST 5:54 PM EST
Nautical Twilight 6:41 AM EST 6:26 PM EST
Astronomical Twilight 6:10 AM EST 6:57 PM EST
Moon 4:16 AM EST (12/21) 2:43 PM EST (12/21)
Length of Visible Light 10h 40m
Length of Day
9h 43m
Waning Crescent, 12% of the Moon is Illuminated
Dec 21
Waning Crescent
Dec 24
New
Jan 1
First Quarter
Jan 9
Full
Jan 16
Last Quarter

Hourly Weather History & Observations

Time (EST) Temp. Dew Point Humidity Pressure Visibility Wind Dir Wind Speed Gust Speed Precip Events Conditions
12:53 AM 57.0 °F 50.0 °F 77% 30.01 in 10.0 mi SSW 10.4 mph - N/A   Overcast
1:53 AM 57.0 °F 50.0 °F 77% 29.98 in 10.0 mi SSW 9.2 mph - 0.00 in Rain Light Rain
2:53 AM 53.1 °F 48.9 °F 86% 29.94 in 10.0 mi Calm Calm - 0.00 in   Overcast
3:53 AM 55.0 °F 50.0 °F 83% 29.93 in 10.0 mi Variable 3.5 mph - 0.00 in   Mostly Cloudy
4:53 AM 51.1 °F 46.9 °F 86% 29.92 in 10.0 mi NNE 5.8 mph - N/A   Mostly Cloudy
5:53 AM 50.0 °F 46.9 °F 89% 29.91 in 10.0 mi WNW 9.2 mph - 0.00 in   Mostly Cloudy
6:53 AM 50.0 °F 46.0 °F 86% 29.91 in 10.0 mi NNE 3.5 mph - N/A   Mostly Cloudy
7:53 AM 50.0 °F 46.9 °F 89% 29.89 in 10.0 mi North 3.5 mph - 0.00 in   Mostly Cloudy
8:53 AM 51.1 °F 48.0 °F 89% 29.88 in 10.0 mi East 3.5 mph - 0.00 in   Overcast
9:16 AM 51.8 °F 48.2 °F 88% 29.89 in 2.5 mi Calm Calm - 0.01 in Rain Rain
9:21 AM 51.8 °F 48.2 °F 88% 29.89 in 3.0 mi Calm Calm - 0.04 in Rain , Thunderstorm Heavy Thunderstorms and Rain
9:53 AM 55.9 °F 54.0 °F 93% 29.89 in 5.0 mi WSW 5.8 mph - 0.07 in Rain , Thunderstorm Light Thunderstorms and Rain
10:04 AM 60.8 °F 55.4 °F 82% 29.89 in 10.0 mi SSW 10.4 mph - 0.00 in   Mostly Cloudy
10:25 AM 60.8 °F 57.2 °F 88% 29.88 in 1.5 mi SSW 16.1 mph 24.2 mph 0.01 in Rain Heavy Rain
10:29 AM 60.8 °F 57.2 °F 88% 29.89 in 5.0 mi SW 15.0 mph 24.2 mph 0.06 in Rain Heavy Rain
10:39 AM 60.8 °F 57.2 °F 88% 29.89 in 2.0 mi SW 17.3 mph 24.2 mph 0.08 in Rain Light Rain
10:46 AM 60.8 °F 57.2 °F 88% 29.89 in 7.0 mi WSW 20.7 mph - 0.11 in Rain Light Rain
10:53 AM 61.0 °F 57.9 °F 90% 29.88 in 10.0 mi SSW 19.6 mph 26.5 mph 0.11 in Rain Light Rain
11:38 AM 62.6 °F 59.0 °F 88% 29.88 in 2.0 mi SSW 19.6 mph - 0.01 in Rain Light Rain
11:45 AM 62.6 °F 59.0 °F 88% 29.88 in 5.0 mi SSW 20.7 mph - 0.02 in Rain Light Rain
11:53 AM 62.1 °F 59.0 °F 90% 29.87 in 10.0 mi SSW 19.6 mph - 0.02 in   Mostly Cloudy
12:53 PM 63.0 °F 60.1 °F 90% 29.86 in 10.0 mi SW 19.6 mph 25.3 mph 0.02 in   Overcast
1:53 PM 64.0 °F 62.1 °F 93% 29.85 in 10.0 mi SW 15.0 mph - N/A   Overcast
2:53 PM 63.0 °F 60.1 °F 90% 29.86 in 8.0 mi West 10.4 mph 20.7 mph 0.02 in Rain Light Rain
3:04 PM 62.6 °F 60.8 °F 94% 29.88 in 10.0 mi WSW 9.2 mph - 0.01 in Rain Light Rain
3:20 PM 62.6 °F 60.8 °F 94% 29.87 in 10.0 mi WSW 10.4 mph - 0.01 in   Mostly Cloudy
3:53 PM 63.0 °F 59.0 °F 87% 29.87 in 10.0 mi WSW 11.5 mph - 0.01 in   Scattered Clouds
4:53 PM 62.1 °F 57.0 °F 84% 29.90 in 10.0 mi WSW 10.4 mph - N/A   Partly Cloudy
5:53 PM 60.1 °F 55.9 °F 86% 29.92 in 10.0 mi West 5.8 mph - N/A   Partly Cloudy
6:53 PM 57.9 °F 54.0 °F 87% 29.94 in 10.0 mi SW 8.1 mph - N/A   Clear
7:53 PM 57.0 °F 51.1 °F 81% 29.95 in 10.0 mi WSW 5.8 mph - N/A   Clear
8:53 PM 57.0 °F 52.0 °F 83% 29.97 in 10.0 mi WSW 4.6 mph - N/A   Clear
9:53 PM 55.9 °F 51.1 °F 84% 29.97 in 10.0 mi West 6.9 mph - N/A   Clear
10:53 PM 51.1 °F 46.0 °F 83% 29.99 in 10.0 mi West 5.8 mph - N/A   Clear
11:53 PM 50.0 °F 45.0 °F 83% 29.99 in 10.0 mi SSW 4.6 mph - N/A   Scattered Clouds